Location: Hamayl? Da??
(36.7028°N, 30.1716°E)
Time: 12:17:43
(UTC+00:00)

USA 281 - Pass Details

Date: 04 August 2024
Orbit: 1078 x 1081 km, 106.0° (Epoch: 09 September)

Event Time Altitude Azimuth Distance (km) Brightness Sun altitude
Exits shadow 23:05:01 60° 336° (NNW) 1,224 3.5 -34.6°
Drops below altitude 10° 23:10:15 10° 338° (NNW) 2,925 6.0 -34.3°
Sets 23:12:46 0° 338° (NNW) 3,884 6.8 -34.1°
